Date,TemperatureHighF,TemperatureAvgF,TemperatureLowF,DewpointHighF,DewpointAvgF,DewpointLowF,HumidityHigh,HumidityAvg,HumidityLow,PressureMaxIn,PressureMinIn,WindSpeedMaxMPH,WindSpeedAvgMPH,GustSpeedMaxMPH,PrecipitationSumIn
2013-8-1,86,71,62,76,68,62,99,91,62,29.90,29.83,7,0,14,0.21
2013-8-2,90,70,56,75,65,56,99,86,52,29.98,29.87,4,0,7,0.00
2013-8-3,84,66,0,73,64,59,99,93,60,29.97,26.89,6,0,11,0.00
2013-8-4,84,76,65,67,64,61,99,68,54,29.94,29.89,5,1,10,0.01
2013-8-12,85,70,65,76,69,65,99,96,76,29.93,29.82,0,0,2,0.15
2013-8-13,80,69,59,76,67,59,99,94,82,29.84,29.79,2,1,4,0.21
2013-8-14,79,64,50,64,57,50,99,83,53,29.99,29.88,3,1,6,0.00
2013-8-15,68,58,49,61,56,49,99,94,79,30.04,29.97,0,0,2,0.00
2013-8-16,78,63,49,66,59,48,99,87,59,30.06,29.99,2,0,4,0.00
2013-8-17,67,60,52,64,60,52,99,97,86,30.07,30.02,1,0,3,0.48
2013-8-18,80,65,60,74,65,60,99,99,82,30.08,30.03,4,0,6,1.93
2013-8-19,64,64,64,63,63,63,99,99,99,30.08,30.04,0,0,1,0.08
2013-8-20,88,72,62,74,69,61,99,90,64,30.10,30.03,2,0,2,0.00
2013-8-21,86,71,62,78,69,62,99,96,75,30.11,30.05,2,0,3,0.01
2013-8-22,90,75,59,77,70,58,99,86,61,30.06,29.96,4,0,8,0.01
2013-8-23,63,62,62,63,62,61,99,99,99,29.99,29.95,0,0,0,0.00
2013-8-24,84,67,52,65,60,52,99,83,48,30.21,30.05,3,0,4,0.01
2013-8-25,83,66,49,66,59,48,99,83,56,30.26,30.18,2,0,4,0.00
2013-8-26,82,66,50,68,61,50,99,85,58,30.17,30.05,3,1,9,0.00
2013-8-27,66,64,57,66,63,56,99,99,99,30.02,30.00,4,1,8,0.00